Temperature
10 10 10 10 10 10 10 11 10 10 10 10 10 10 10 10 10 10 11 11 11 11 11 11 11 11 11 10 10 11 11 11 11 11 11 11 11 11 11 11 11 10 10
10 10 10 10 10 10 10 10 10 10 10 10 10 10 10 10 10 10 10 10 10 10 10 10 10 10 10 10 10 10 10 10 10 10 10 10 10 10 10 10 10 10 10
9 10 10 10 10 10 9 9 9 9 9 10 10 10 10 10 9 10 10 10 10 10 10 10 10 10 10 10 10 9 10 10 10 10 10 10 10 10 10 10 10 10 10
9 9 9 9 9 9 9 9 9 9 9 9 9 9 9 9 9 9 9 9 9 9 9 9 9 9 9 9 9 9 9 9 9 9 9 9 9 9 9 9 9 9 9
8 9 9 9 9 9 9 9 9 9 9 9 9 9 9 9 9 9 9 9 9 9 9 9 9 9 9 9 9 9 9 9 9 8 8 8 8 8 8 9 9 9 9
8 8 8 8 8 8 8 8 8 8 8 8 8 8 8 8 8 8 8 8 8 8 8 8 8 8 8 8 8 8 8 8 8 8 8 8 8 8 8 8 8 8 8
7 7 7 7 8 8 7 8 8 8 7 7 7 7 7 7 7 7 8 8 8 8 8 8 8 8 8 8 8 8 8 8 8 8 8 8 7 8 8 8 8 8 8
7 7 7 7 7 7 7 7 7 7 7 6 6 6 6 6 6 7 7 7 7 7 7 7 7 7 7 7 7 7 7 7 7 7 7 7 7 7 7 7 7 7 7
6 6 6 6 6 6 6 6 6 6 6 6 6 5 5 5 5 6 6 6 6 6 7 7 7 7 7 7 7 7 7 7 7 7 7 7 7 7 7 7 7 7 7
5 5 5 5 5 5 5 6 6 6 6 5 5 5 5 5 5 4 5 5 5 6 6 6 6 6 6 6 6 6 6 6 6 6 6 6 6 6 6 6 6 7 7
5 5 5 5 5 5 5 5 5 5 5 5 5 5 5 5 5 4 4 5 5 5 5 5 6 6 6 6 6 6 6 6 6 6 6 6 6 6 6 6 6 6 6
4 4 4 4 4 4 4 4 4 4 4 4 4 4 4 4 4 4 4 4 4 4 5 5 5 5 5 5 5 5 5 5 5 5 5 5 5 5 5 5 5 5 5
3 3 3 3 3 3 3 3 4 3 4 4 4 4 4 4 4 4 4 3 3 3 4 4 4 4 5 5 5 5 5 5 5 5 5 5 5 5 5 5 5 5 5
2 2 2 3 3 3 3 3 3 3 3 3 3 3 3 3 3 3 3 3 3 3 3 3 4 4 4 4 4 4 4 4 4 4 4 4 4 4 4 4 4 4 4
2 2 2 2 2 2 2 2 2 2 2 2 2 3 3 3 3 3 3 3 2 2 2 2 3 3 3 3 4 4 4 4 4 4 4 4 4 4 4 4 4 4 4
1 1 1 1 1 1 2 1 1 2 2 2 2 2 2 2 2 2 2 2 2 2 2 2 2 3 3 3 3 3 3 3 3 3 3 3 3 3 3 3 3 3 3
1 1 1 1 1 1 1 1 1 1 1 1 1 1 1 1 1 1 1 1 1 1 1 1 2 2 2 2 2 2 2 2 2 3 3 3 3 3 3 3 3 3 3
0 0 0 0 0 0 0 0 1 1 0 1 1 1 1 1 1 1 1 1 1 1 0 1 1 1 1 1 1 1 2 2 2 2 2 2 2 2 2 2 2 2 2
-0 -0 -0 -0 -0 -0 0 0 -0 -0 -0 -0 -0 0 0 0 0 -0 -0 -0 -0 -0 -0 -0 -0 0 0 0 1 1 1 1 1 1 1 1 1 1 2 2 2 2 2
-1 -1 -1 -1 -1 -1 -1 -1 -1 -1 -1 -1 -1 -1 -1 -1 -1 -1 -1 -1 -1 -1 -1 -1 -1 -1 -1 -0 -0 -0 -0 0 -0 0 0 1 1 1 1 1 1 1 1
-2 -1 -1 -1 -1 -1 -1 -1 -1 -1 -1 -1 -1 -1 -1 -1 -1 -1 -2 -1 -2 -2 -2 -2 -2 -1 -1 -1 -1 -1 -1 -1 -1 -1 -1 -0 -0 -0 0 0 0 0 0
-2 -2 -2 -2 -2 -2 -2 -2 -2 -2 -2 -2 -2 -2 -2 -2 -2 -2 -2 -2 -2 -2 -2 -2 -2 -2 -2 -2 -2 -2 -2 -2 -2 -2 -1 -1 -1 -1 -1 -1 -1 -1 -1
-3 -3 -3 -3 -3 -3 -3 -3 -3 -3 -3 -3 -2 -3 -3 -3 -3 -3 -3 -3 -3 -3 -3 -2 -3 -2 -2 -2 -2 -2 -2 -2 -3 -2 -3 -2 -2 -2 -1 -1 -1 -1 -1
-4 -4 -4 -4 -4 -3 -3 -3 -3 -3 -3 -3 -3 -3 -3 -3 -3 -3 -3 -3 -3 -3 -3 -3 -3 -3 -3 -3 -3 -3 -3 -3 -3 -3 -3 -3 -3 -3 -2 -2 -2 -2 -2
-4 -4 -4 -4 -4 -4 -4 -4 -4 -4 -4 -4 -4 -4 -4 -4 -4 -4 -4 -4 -4 -4 -4 -4 -4 -4 -4 -4 -4 -4 -4 -4 -4 -4 -4 -4 -4 -4 -3 -3 -3 -3 -3
-5 -5 -5 -5 -5 -5 -5 -5 -5 -5 -5 -5 -4 -4 -4 -4 -4 -4 -5 -5 -4 -4 -4 -5 -5 -5 -4 -4 -4 -4 -4 -4 -5 -5 -4 -4 -4 -5 -5 -4 -4 -3 -3
Wind_Speed
3 3 4 4 4 3 3 2 3 3 4 4 4 4 4 5 5 5 5 7 7 7 6 7 6 6 6 6 6 7 7 7 6 6 6 6 6 6 7 6 6 6 6
3 3 3 3 4 3 2 2 3 3 3 4 4 4 5 5 6 5 5 5 6 6 6 6 5 6 6 5 6 6 6 6 6 5 5 5 5 5 5 5 5 5 5
3 3 3 3 3 3 3 3 3 3 3 3 3 3 4 4 5 5 5 5 5 5 5 5 5 5 4 5 5 5 5 5 5 5 5 5 5 4 4 4 4 4 4
3 3 3 2 2 3 3 2 2 2 2 1 1 2 3 3 3 4 4 5 5 4 4 4 4 4 4 4 4 4 4 4 4 4 4 4 4 4 4 3 3 3 3
4 4 3 3 3 3 3 2 2 2 2 1 1 1 2 2 2 3 4 4 4 4 4 4 3 3 4 3 3 2 3 3 3 3 3 3 3 3 3 3 3 3 3
4 5 3 3 4 3 2 2 1 2 2 1 1 2 1 1 2 2 2 3 3 3 4 4 3 2 2 2 2 1 2 3 3 3 2 3 3 2 2 3 3 4 4
4 4 3 3 3 2 2 2 2 2 1 1 2 1 1 1 1 1 2 2 2 2 3 3 3 3 2 2 2 1 1 2 2 3 3 3 3 3 3 3 4 4 4
3 3 3 2 2 2 3 2 3 2 1 1 1 2 1 1 1 1 0 1 1 2 2 2 2 2 2 1 1 2 1 1 2 3 3 3 3 3 4 4 3 3 3
2 2 2 2 2 2 3 2 2 2 2 0 1 2 2 2 1 0 0 0 0 0 1 1 1 1 1 1 1 1 1 1 1 2 2 3 3 3 4 3 3 2 2
2 2 2 2 2 2 2 2 2 1 3 2 1 0 1 2 2 1 1 0 0 0 1 0 0 1 1 2 2 1 1 1 1 2 3 3 3 3 4 3 3 2 2
2 2 2 2 2 2 2 2 2 2 2 2 2 1 1 0 1 2 2 2 1 1 2 1 1 2 2 2 2 2 2 1 2 3 3 3 3 3 2 3 2 3 3
2 2 2 2 2 2 2 3 3 3 2 2 2 2 2 2 2 1 2 2 2 2 2 1 2 3 3 3 4 3 3 3 3 4 5 5 4 3 3 3 3 3 3
2 3 2 2 2 2 3 3 3 3 4 3 3 3 2 2 2 2 2 2 2 2 2 2 2 3 3 4 4 4 5 4 5 6 7 6 5 5 5 4 5 5 5
3 3 3 3 3 3 3 3 3 4 3 4 4 3 2 2 2 2 2 2 2 2 2 3 2 3 4 4 5 5 5 6 6 7 7 6 6 6 5 6 6 5 6
3 4 4 4 4 4 4 4 4 4 4 4 4 4 3 3 3 3 2 3 4 4 4 3 2 2 4 5 5 5 6 8 8 8 7 7 6 6 6 6 6 6 6
4 4 5 5 5 5 5 5 4 4 5 5 4 4 4 3 3 3 3 3 3 4 5 3 2 2 3 4 6 5 6 7 8 8 7 6 6 7 7 7 7 7 7
5 6 6 6 6 6 6 6 6 5 6 6 5 5 5 4 4 4 4 3 3 3 5 4 2 2 2 2 3 4 5 6 7 8 8 8 8 8 8 7 8 8 8
5 6 6 6 6 6 7 7 7 7 7 7 7 7 7 5 5 5 4 4 4 4 4 5 3 2 3 3 3 2 4 5 6 7 8 9 9 9 8 8 8 9 9
4 5 5 6 6 6 7 7 8 8 8 8 8 8 7 7 7 5 5 5 4 4 4 5 5 3 2 2 2 2 2 3 5 7 8 9 9 10 9 9 10 10 10
4 4 5 5 5 5 6 6 7 7 7 7 7 7 8 8 8 7 6 6 5 4 4 4 4 3 3 2 2 2 2 2 3 5 6 7 8 10 11 11 11 11 10
4 4 4 4 4 4 5 5 6 7 7 7 6 7 7 9 10 8 7 6 6 5 4 5 5 4 4 3 3 2 3 3 3 3 3 4 5 6 8 11 11 11 11
3 3 3 4 4 5 8 9 7 6 6 7 7 6 7 8 10 11 11 10 9 8 7 6 6 6 6 4 3 3 3 3 4 2 2 4 5 5 6 8 11 11 11
3 3 4 4 4 6 9 9 9 6 6 6 7 6 6 7 8 7 8 10 10 11 10 8 8 8 7 6 5 5 5 5 5 3 2 4 3 5 6 9 11 12 11
3 3 4 4 4 6 8 8 8 5 4 5 6 6 7 7 7 7 6 7 7 7 8 7 7 7 7 6 6 6 5 4 3 3 3 4 3 4 5 7 12 12 12
2 3 3 4 4 5 7 8 7 3 4 5 5 5 6 6 9 9 7 7 7 6 8 10 10 10 10 10 8 4 4 4 5 4 3 3 3 3 4 5 9 11 11
3 3 3 3 3 4 6 7 6 3 4 4 4 4 7 7 8 8 6 6 7 7 5 6 6 7 7 8 10 7 6 6 4 3 3 3 2 1 2 3 4 7 8
Wind_Direction
80 67 66 64 65 66 54 44 53 52 47 45 48 49 50 56 66 82 80 79 80 81 88 91 96 106 106 99 103 105 102 99 97 103 115 119 117 113 107 105 102 97 93
75 83 75 63 50 49 49 47 60 57 52 52 43 38 48 58 63 68 84 81 80 78 79 83 88 98 106 104 102 100 101 100 100 104 112 118 121 120 116 112 109 104 98
71 82 81 70 52 50 50 62 64 61 66 61 60 43 43 53 65 66 70 76 80 79 76 76 79 88 99 106 108 108 102 98 98 97 102 109 114 116 122 121 117 111 113
69 82 89 77 62 72 57 67 87 91 77 70 56 53 45 48 71 78 70 69 70 71 78 75 75 80 87 96 106 113 114 111 109 106 109 113 112 112 111 129 135 131 131
57 71 85 75 66 67 68 70 88 112 111 82 63 61 56 54 62 86 78 75 74 72 75 71 67 74 79 83 101 126 135 131 133 129 124 131 131 127 124 121 129 136 133
60 65 77 77 78 84 85 88 105 93 123 120 85 55 23 50 75 85 91 85 79 78 79 74 67 65 67 75 69 102 164 163 162 160 162 164 161 157 150 139 126 124 122
69 74 76 79 83 106 115 111 114 115 116 121 102 81 0 357 93 73 69 84 79 78 91 89 83 79 62 52 42 9 234 197 193 189 185 182 181 179 170 150 133 124 117
81 89 93 105 102 115 105 105 119 120 111 99 129 148 173 9 10 347 37 94 83 73 82 97 99 94 82 82 46 35 26 258 226 216 212 200 190 187 175 159 149 136 123
104 99 111 109 112 130 140 141 139 135 160 176 120 147 162 197 182 295 153 110 113 108 59 86 117 121 134 138 138 100 60 13 270 240 243 225 205 188 177 174 179 164 144
148 138 135 126 131 129 150 161 144 152 160 186 219 254 184 154 164 188 272 229 186 257 237 318 185 212 201 179 157 138 132 4 296 256 256 239 217 202 199 196 190 187 186
162 157 149 137 147 158 166 161 162 177 180 188 197 208 227 158 149 184 219 229 263 263 246 236 215 223 219 203 200 203 196 240 263 257 256 239 239 217 208 204 211 217 222
190 179 168 162 169 181 186 184 181 189 194 200 209 198 196 190 184 190 215 222 237 252 254 236 218 218 216 221 217 213 216 233 257 255 248 238 236 232 237 233 233 238 232
211 204 200 191 194 203 204 195 191 202 200 199 213 215 217 218 208 212 209 237 254 266 238 244 226 217 229 225 226 223 223 231 250 251 242 238 229 230 238 243 241 242 235
206 207 209 209 214 211 213 202 200 207 202 206 218 214 217 228 221 210 207 210 247 262 240 240 240 223 233 232 233 226 230 236 248 255 244 237 239 239 244 249 248 247 243
212 205 212 217 220 218 216 206 206 215 208 212 215 215 217 225 224 224 216 199 202 237 251 239 226 234 235 240 243 234 234 240 248 251 241 241 242 243 244 247 246 248 246
210 205 214 218 220 220 218 213 212 211 215 220 217 216 222 223 222 223 224 227 221 222 245 236 240 240 230 239 243 245 241 240 241 244 242 243 246 249 245 243 245 245 246
209 209 213 215 215 216 215 213 213 212 218 222 221 217 224 222 218 219 224 226 229 227 249 266 263 243 220 222 240 238 239 236 240 241 241 245 248 247 246 246 246 246 247
217 216 216 216 218 220 214 213 216 216 218 219 220 219 223 223 221 223 220 225 229 220 225 247 260 240 230 219 222 226 234 237 241 248 245 246 247 246 246 244 246 248 249
225 225 220 221 224 226 222 218 217 218 221 221 219 222 221 217 223 227 224 225 229 230 221 227 248 249 244 228 227 247 246 235 248 253 253 250 246 245 244 245 246 249 249
227 225 224 228 229 231 230 224 220 221 224 226 226 226 223 221 221 220 226 224 223 223 223 227 240 244 236 232 214 229 262 250 259 254 258 259 251 247 245 247 247 249 247
239 230 225 231 231 235 237 230 227 225 223 226 228 228 230 231 231 229 231 223 215 219 223 229 234 247 241 215 223 225 255 273 265 237 252 254 250 248 245 247 245 242 244
240 229 232 234 239 248 249 246 244 234 227 227 230 230 234 235 235 237 239 236 229 221 221 229 237 235 238 231 232 234 244 259 274 238 239 266 240 244 241 239 242 241 243
243 238 242 240 246 255 254 249 248 246 235 234 232 231 240 239 237 230 235 236 239 238 233 230 234 235 238 233 230 235 235 242 257 246 237 267 255 253 248 247 245 242 243
247 248 253 250 253 257 257 257 252 250 240 239 238 232 233 233 230 225 224 232 239 242 241 238 233 239 244 239 230 231 233 248 265 248 221 251 250 259 265 248 242 240 240
264 260 261 257 254 260 261 262 258 242 243 246 246 242 238 235 240 235 225 228 238 245 250 248 248 250 253 254 248 231 225 235 255 247 223 231 246 272 272 257 237 238 240
262 264 270 264 257 257 262 261 257 237 245 250 248 246 249 247 243 239 225 222 233 239 237 244 245 250 251 251 249 235 223 231 248 251 210 204 231 262 275 261 242 242 245
Height
1525 1526 1528 1529 1530 1532 1533 1534 1535 1536 1537 1539 1540 1541 1542 1543 1544 1544 1545 1546 1547 1548 1548 1549 1549 1550 1550 1551 1552 1553 1553 1554 1555 1555 1556 1557 1558 1558 1558 1559 1560 1560 1561
1523 1524 1526 1527 1528 1530 1531 1532 1533 1534 1535 1537 1538 1539 1540 1541 1542 1543 1544 1545 1546 1547 1547 1548 1549 1549 1550 1550 1551 1552 1552 1553 1554 1554 1555 1556 1557 1557 1557 1558 1559 1559 1559
1521 1522 1523 1525 1526 1528 1529 1530 1531 1532 1533 1535 1536 1537 1538 1539 1540 1541 1542 1543 1544 1545 1546 1547 1548 1548 1549 1549 1550 1550 1551 1551 1552 1553 1554 1554 1555 1556 1556 1557 1557 1557 1558
1518 1520 1521 1522 1524 1525 1526 1528 1529 1530 1531 1532 1534 1535 1536 1537 1538 1539 1541 1542 1543 1543 1544 1545 1546 1547 1547 1548 1549 1549 1549 1550 1550 1551 1552 1553 1553 1554 1555 1555 1555 1556 1556
1515 1517 1518 1520 1521 1522 1523 1525 1526 1527 1528 1529 1531 1532 1534 1535 1536 1537 1539 1540 1541 1541 1542 1543 1544 1545 1545 1546 1547 1547 1547 1548 1549 1549 1550 1551 1552 1552 1553 1553 1553 1554 1554
1512 1514 1515 1516 1518 1519 1520 1522 1523 1524 1526 1527 1528 1530 1531 1532 1533 1535 1536 1538 1539 1539 1540 1541 1541 1542 1543 1544 1544 1545 1545 1546 1546 1547 1548 1549 1549 1550 1551 1551 1551 1552 1552
1509 1511 1512 1513 1515 1516 1517 1519 1520 1521 1522 1524 1525 1527 1528 1530 1531 1532 1534 1535 1536 1537 1538 1539 1539 1540 1540 1541 1541 1542 1542 1543 1544 1545 1546 1547 1547 1548 1548 1549 1549 1549 1550
1506 1508 1509 1510 1511 1513 1514 1516 1517 1518 1519 1520 1522 1524 1525 1527 1528 1529 1530 1531 1533 1534 1534 1535 1536 1537 1537 1538 1538 1539 1539 1540 1541 1542 1543 1544 1544 1545 1546 1546 1546 1547 1547
1502 1504 1506 1507 1508 1509 1511 1512 1514 1514 1516 1518 1519 1521 1522 1522 1524 1525 1526 1528 1529 1530 1531 1532 1533 1534 1534 1535 1535 1536 1537 1537 1538 1538 1539 1540 1541 1542 1542 1543 1543 1544 1544
1499 1501 1502 1503 1505 1506 1507 1509 1510 1512 1513 1514 1515 1517 1519 1519 1521 1521 1523 1525 1526 1527 1528 1529 1530 1531 1531 1531 1532 1532 1533 1534 1534 1535 1536 1537 1538 1539 1539 1540 1540 1541 1541
1496 1497 1498 1500 1501 1502 1504 1505 1507 1508 1509 1510 1511 1512 1514 1515 1517 1518 1518 1520 1522 1523 1524 1525 1526 1527 1528 1528 1528 1529 1530 1530 1531 1531 1532 1533 1534 1535 1536 1536 1537 1537 1538
1492 1493 1494 1496 1497 1498 1500 1501 1503 1504 1506 1507 1508 1509 1510 1511 1512 1514 1514 1515 1516 1518 1520 1521 1522 1523 1524 1524 1525 1525 1526 1526 1526 1527 1528 1529 1530 1531 1532 1532 1533 1533 1534
1488 1489 1490 1492 1493 1495 1496 1497 1499 1500 1502 1503 1504 1505 1506 1507 1509 1510 1511 1511 1512 1513 1515 1516 1517 1519 1519 1520 1520 1521 1521 1522 1522 1522 1523 1524 1525 1526 1527 1528 1529 1529 1529
1484 1485 1487 1488 1489 1491 1492 1493 1494 1496 1497 1499 1500 1501 1502 1503 1505 1506 1507 1508 1508 1509 1510 1511 1512 1514 1515 1515 1516 1516 1517 1517 1517 1518 1518 1519 1520 1521 1522 1523 1524 1524 1525
1479 1481 1482 1483 1485 1486 1487 1489 1490 1491 1493 1494 1495 1496 1497 1499 1501 1502 1503 1504 1505 1504 1504 1506 1507 1508 1510 1510 1511 1512 1512 1513 1513 1513 1513 1514 1515 1516 1517 1518 1519 1519 1520
1475 1476 1477 1479 1480 1481 1482 1484 1485 1486 1488 1489 1490 1491 1493 1494 1495 1496 1498 1499 1500 1501 1500 1500 1501 1503 1504 1505 1506 1506 1507 1507 1508 1508 1508 1509 1510 1511 1512 1513 1513 1514 1514
1470 1471 1472 1473 1475 1476 1477 1478 1480 1481 1482 1483 1485 1486 1487 1489 1490 1491 1492 1493 1495 1496 1495 1494 1496 1498 1498 1499 1500 1501 1501 1502 1502 1503 1503 1504 1505 1506 1506 1507 1507 1508 1509
1464 1465 1467 1468 1469 1470 1471 1473 1474 1475 1476 1478 1479 1481 1482 1483 1484 1486 1487 1488 1489 1490 1491 1489 1490 1492 1493 1494 1494 1494 1495 1496 1497 1498 1498 1498 1499 1500 1500 1501 1502 1502 1503
1458 1460 1461 1462 1463 1464 1465 1466 1468 1469 1470 1472 1473 1474 1476 1477 1478 1479 1480 1482 1483 1484 1485 1485 1484 1486 1487 1488 1489 1489 1490 1491 1491 1492 1492 1492 1493 1494 1494 1495 1496 1496 1497
1452 1453 1455 1456 1457 1458 1459 1460 1461 1463 1464 1465 1467 1468 1469 1471 1472 1473 1474 1476 1477 1478 1479 1479 1479 1480 1481 1482 1483 1483 1484 1485 1485 1486 1486 1486 1487 1488 1488 1489 1489 1490 1491
1446 1447 1448 1449 1450 1451 1453 1454 1455 1456 1457 1459 1460 1461 1463 1464 1466 1467 1468 1469 1471 1472 1472 1473 1473 1474 1475 1476 1477 1478 1478 1479 1479 1480 1480 1480 1481 1481 1482 1482 1483 1483 1484
1440 1441 1442 1443 1444 1445 1447 1448 1450 1450 1451 1452 1453 1455 1456 1458 1459 1461 1462 1463 1465 1465 1466 1467 1467 1468 1469 1470 1472 1472 1472 1472 1472 1474 1474 1474 1475 1474 1475 1476 1476 1477 1478
1434 1435 1436 1437 1438 1439 1441 1442 1443 1444 1445 1446 1447 1448 1450 1451 1453 1454 1455 1457 1458 1459 1460 1461 1461 1461 1463 1464 1466 1466 1467 1467 1467 1468 1469 1467 1468 1468 1469 1469 1470 1471 1471
1429 1430 1431 1431 1432 1434 1435 1436 1437 1438 1439 1440 1441 1442 1443 1445 1446 1448 1449 1450 1451 1452 1453 1454 1455 1455 1457 1459 1460 1460 1461 1461 1462 1463 1464 1462 1461 1461 1462 1463 1464 1465 1465
1425 1425 1426 1427 1428 1429 1430 1431 1432 1432 1433 1433 1435 1436 1438 1439 1440 1442 1443 1443 1444 1446 1447 1448 1449 1450 1451 1452 1454 1455 1455 1455 1455 1456 1457 1457 1455 1455 1455 1456 1457 1458 1458
1421 1421 1422 1422 1423 1424 1424 1425 1426 1427 1427 1428 1429 1430 1432 1433 1435 1436 1437 1437 1438 1439 1441 1442 1443 1444 1445 1447 1448 1449 1449 1450 1449 1449 1450 1451 1450 1450 1448 1448 1450 1451 1451